Regional Weather Roundup
Issued by NWS

Home | Current Version | Previous Version | Graphics & Text | Print | Product List | Glossary On
Versions: 1 2 3 4 5 6 7 8 9 10 11 12 13 14 15 16 17 18 19 20 21 22 23 24 25 26 27 28 29 30 31 32 33 34 35 36 37 38 39 40 41 42 43 44 45 46 47 48 49 50
000
ASUS43 KLSX 221407
RWRMO

WEATHER SUMMARY FOR MISSOURI
NATIONAL WEATHER SERVICE SPRINGFIELD MO
900 AM CDT FRI MAY 22 2015

NOTE: "FAIR" INDICATES FEW OR NO CLOUDS BELOW 12,000 FEET WITH NO
       SIGNIFICANT WEATHER AND/OR OBSTRUCTIONS TO VISIBILITY.
       CURRENT SKY AND/OR WEATHER CONDITIONS ARE NOT AVAILABLE FOR
       CHILLICOTHE AND FARMINGTON.

MOZ001>031-035>038-043-044-053-054-221500-
...NORTHERN AND WESTERN MISSOURI...

CITY           SKY/WX    TMP DP  RH WIND       PRES   REMARKS
KANSAS CTY INT CLOUDY    56  51  84 SW6       30.27R
KANSAS C DTWN  CLOUDY    58  49  72 SW7       30.27R
LEE`S SUMMIT   CLOUDY    58  51  78 SW6       30.28R
ST JOSEPH      CLOUDY    56  50  80 CALM      30.26R
CHILLICOTHE      N/A     63  49  60 CALM      30.25R
KIRKSVILLE     SUNNY     61  47  59 NW7       30.23R

$$
MOZ066>068-077>081-088>096-101>105-221500-
...SOUTHWEST MISSOURI...

CITY           SKY/WX    TMP DP  RH WIND       PRES   REMARKS
SPRINGFIELD    SUNNY     57  47  69 S10       30.28R
JOPLIN         CLOUDY    56  48  74 S7        30.30R

$$
MOZ032>034-039>042-045>050-055>058-069>072-221500-
...CENTRAL MISSOURI...

CITY           SKY/WX    TMP DP  RH WIND       PRES   REMARKS
COLUMBIA       SUNNY     63  49  60 NW6       30.25S
JEFFERSON CITY SUNNY     60  49  66 CALM      30.26S
ROLLA          SUNNY     58  48  69 VRB3      30.26R
SEDALIA        MOSUNNY   63  50  62 CALM      30.27R
WHITEMAN AFB   PTSUNNY   60  49  65 CALM      30.25R
WARRENSBURG    CLOUDY    57  50  77 CALM      30.26R
OSAGE BEACH    MOSUNNY   55  45  67 S3        30.27R

$$
MOZ051-052-059>065-221500-
...EAST CENTRAL MISSOURI...

CITY           SKY/WX    TMP DP  RH WIND       PRES   REMARKS
ST LOUIS INTL  MOSUNNY   63  47  55 W9        30.25R
SPIRIT OF STL  SUNNY     61  49  64 W9        30.24R
ST CHARLES     SUNNY     61  47  59 W12       30.23S

$$
MOZ072>076-082>087-097>100-106>115-221500-
...SOUTH CENTRAL AND SOUTHEAST MISSOURI...

CITY           SKY/WX    TMP DP  RH WIND       PRES   REMARKS
CAPE GIRARDEAU SUNNY     56  49  77 W5        30.31R
FARMINGTON     SUNNY     55  48  76 CALM      30.32S
POPLAR BLUFF   SUNNY     57  49  74 CALM      30.31R
WEST PLAINS    SUNNY     56  48  74 S6        30.31R

$$



USA.gov is the U.S. government's official web portal to all federal, state and local government web resources and services.